| time (UTC) | temp C | wind direction | speed KPH | gust KPH | rain 1hr cm | rain 24hr cm | rain mn cm | humidity % | barometer mb |
| 20260504081540 | 16 | 97 | 0.0 | 4.8 | 0.00 | 0.00 | 0.00 | 79 | 1008.6 |
| 20260504050114 | 21 | 0 | 0.0 | 0.0 | 0.00 | 0.00 | 0.00 | 64 | 1007.3 |
| 20260504044546 | 21 | 0 | 0.0 | 3.2 | 0.00 | 0.00 | 0.00 | 62 | 1007.2 |
| 20260504043039 | 22 | 0 | 0.0 | 4.8 | 0.00 | 0.00 | 0.00 | 60 | 1007.0 |
| 20260504041548 | 23 | 294 | 0.0 | 3.2 | 0.00 | 0.00 | 0.00 | 55 | 1006.8 |
| 20260504040055 | 25 | 0 | 0.0 | 3.2 | 0.00 | 0.00 | 0.00 | 52 | 1006.7 |
| 20260504034544 | 26 | 0 | 0.0 | 0.0 | 0.00 | 0.00 | 0.00 | 46 | 1006.7 |
| 20260504033043 | 27 | 294 | 0.0 | 1.6 | 0.00 | 0.00 | 0.00 | 41 | 1006.5 |
| 20260504031558 | 28 | 293 | 0.0 | 4.8 | 0.00 | 0.00 | 0.00 | 38 | 1006.4 |
| 20260504030048 | 29 | 293 | 3.2 | 8.0 | 0.00 | 0.00 | 0.00 | 34 | 1006.3 |
| 20260504024548 | 30 | 309 | 1.6 | 8.0 | 0.00 | 0.00 | 0.00 | 34 | 1006.1 |
| 20260504023043 | 30 | 302 | 3.2 | 8.0 | 0.00 | 0.00 | 0.00 | 32 | 1006.2 |
| 20260504021547 | 31 | 316 | 3.2 | 11.3 | 0.00 | 0.00 | 0.00 | 31 | 1006.3 |
| 20260504020047 | 31 | 297 | 4.8 | 14.5 | 0.00 | 0.00 | 0.00 | 30 | 1006.3 |
| 20260504014557 | 32 | 338 | 9.7 | 20.9 | 0.00 | 0.00 | 0.00 | 27 | 1006.4 |
| 20260504013107 | 32 | 318 | 8.0 | 17.7 | 0.00 | 0.00 | 0.00 | 30 | 1006.4 |
| 20260504011545 | 33 | 323 | 4.8 | 17.7 | 0.00 | 0.00 | 0.00 | 30 | 1006.3 |
| 20260504010046 | 33 | 323 | 1.6 | 17.7 | 0.00 | 0.00 | 0.00 | 27 | 1006.5 |
| 20260504004547 | 33 | 337 | 4.8 | 17.7 | 0.00 | 0.00 | 0.00 | 27 | 1006.6 |
| 20260504003046 | 33 | 344 | 3.2 | 14.5 | 0.00 | 0.00 | 0.00 | 28 | 1006.6 |
| 20260504001551 | 33 | 300 | 6.4 | 16.1 | 0.00 | 0.00 | 0.00 | 25 | 1006.6 |
| 20260504000045 | 33 | 288 | 6.4 | 16.1 | 0.00 | 0.00 | 0.00 | 27 | 1006.8 |
| 20260503234550 | 32 | 0 | 3.2 | 12.9 | 0.00 | 0.00 | 0.00 | 31 | 1006.9 |
| 20260503233052 | 32 | 0 | 3.2 | 9.7 | 0.00 | 0.00 | 0.00 | 28 | 1007.0 |
| 20260503231545 | 32 | 325 | 1.6 | 9.7 | 0.00 | 0.00 | 0.00 | 33 | 1007.3 |
| 20260503230045 | 31 | 0 | 0.0 | 4.8 | 0.00 | 0.00 | 0.00 | 31 | 1007.4 |
| 20260503224545 | 31 | 360 | 1.6 | 4.8 | 0.00 | 0.00 | 0.00 | 31 | 1007.7 |
| 20260503223048 | 31 | 0 | 1.6 | 4.8 | 0.00 | 0.00 | 0.00 | 30 | 1008.1 |
| 20260503221555 | 31 | 0 | 0.0 | 6.4 | 0.00 | 0.00 | 0.00 | 32 | 1008.2 |
| 20260503220056 | 31 | 0 | 0.0 | 6.4 | 0.00 | 0.00 | 0.00 | 34 | 1008.6 |
| 20260503214551 | 31 | 0 | 0.0 | 3.2 | 0.00 | 0.00 | 0.00 | 40 | 1008.6 |
| 20260503213049 | 31 | 0 | 1.6 | 8.0 | 0.00 | 0.00 | 0.00 | 37 | 1008.8 |
| 20260503211547 | 31 | 0 | 0.0 | 4.8 | 0.00 | 0.00 | 0.00 | 40 | 1009.0 |
| 20260503210053 | 30 | 0 | 0.0 | 3.2 | 0.00 | 0.00 | 0.00 | 37 | 1009.2 |
| 20260503204558 | 30 | 0 | 0.0 | 8.0 | 0.00 | 0.00 | 0.00 | 41 | 1009.5 |
| 20260503203053 | 30 | 325 | 3.2 | 12.9 | 0.00 | 0.00 | 0.00 | 42 | 1009.6 |
| 20260503201546 | 29 | 333 | 3.2 | 12.9 | 0.00 | 0.00 | 0.00 | 45 | 1009.8 |
| 20260503200047 | 28 | 26 | 0.0 | 6.4 | 0.00 | 0.00 | 0.00 | 46 | 1010.0 |
| 20260503194550 | 27 | 335 | 0.0 | 4.8 | 0.00 | 0.00 | 0.00 | 43 | 1010.2 |
| 20260503193043 | 27 | 0 | 0.0 | 4.8 | 0.00 | 0.00 | 0.00 | 47 | 1010.3 |
| 20260503191548 | 27 | 0 | 0.0 | 8.0 | 0.00 | 0.00 | 0.00 | 53 | 1010.6 |
| 20260503190059 | 26 | 0 | 0.0 | 8.0 | 0.00 | 0.00 | 0.00 | 55 | 1010.7 |
| 20260503184551 | 26 | 0 | 1.6 | 8.0 | 0.00 | 0.00 | 0.00 | 57 | 1010.8 |
| 20260503183059 | 25 | 0 | 0.0 | 8.0 | 0.00 | 0.00 | 0.00 | 56 | 1011.1 |
| 20260503181548 | 24 | 0 | 0.0 | 9.7 | 0.00 | 0.00 | 0.00 | 61 | 1011.1 |
| 20260503180056 | 23 | 0 | 0.0 | 8.0 | 0.00 | 0.00 | 0.00 | 63 | 1011.3 |
| 20260503174550 | 22 | 0 | 0.0 | 8.0 | 0.00 | 0.00 | 0.00 | 65 | 1011.5 |
| 20260503173139 | 21 | 350 | 0.0 | 8.0 | 0.00 | 0.00 | 0.00 | 62 | 1011.6 |
| 20260503171550 | 20 | 339 | 1.6 | 8.0 | 0.00 | 0.00 | 0.00 | 73 | 1011.8 |
| 20260503130104 | 10 | 0 | 0.0 | 0.0 | 0.00 | 0.00 | 0.00 | 94 | 1012.1 |